| time (UTC) | temp F | wind direction | speed MPH | gust MPH | rain 1hr in | rain 24hr in | rain mn in | humidity % | barometer mb |
| 20260506211504 | 51 | 235 | 3.0 | 12.0 | 0.03 | 0.31 | 0.31 | 96 | 1008.4 |
| 20260506211026 | 51 | 264 | 3.0 | 13.0 | 0.04 | 0.31 | 0.31 | 96 | 1008.4 |
| 20260506210504 | 52 | 295 | 3.0 | 13.0 | 0.06 | 0.31 | 0.31 | 96 | 1008.3 |
| 20260506210005 | 52 | 263 | 3.0 | 19.0 | 0.06 | 0.31 | 0.31 | 96 | 1008.1 |
| 20260506205504 | 52 | 254 | 4.0 | 19.0 | 0.06 | 0.31 | 0.31 | 96 | 1008.1 |
| 20260506205004 | 52 | 258 | 4.0 | 10.0 | 0.05 | 0.30 | 0.30 | 96 | 1007.8 |
| 20260506204504 | 52 | 283 | 4.0 | 10.0 | 0.05 | 0.30 | 0.30 | 95 | 1007.7 |
| 20260506204004 | 53 | 293 | 4.0 | 13.0 | 0.05 | 0.30 | 0.30 | 95 | 1007.6 |
| 20260506203504 | 54 | 275 | 4.0 | 13.0 | 0.04 | 0.29 | 0.29 | 94 | 1007.5 |
| 20260506203004 | 54 | 270 | 3.0 | 12.0 | 0.04 | 0.29 | 0.29 | 94 | 1007.5 |
| 20260506202505 | 56 | 268 | 3.0 | 12.0 | 0.03 | 0.28 | 0.28 | 95 | 1007.5 |
| 20260506202004 | 56 | 269 | 3.0 | 12.0 | 0.03 | 0.28 | 0.28 | 95 | 1007.4 |
| 20260506201525 | 57 | 254 | 3.0 | 14.0 | 0.03 | 0.28 | 0.28 | 95 | 1007.3 |
| 20260506201025 | 58 | 225 | 3.0 | 14.0 | 0.02 | 0.27 | 0.27 | 95 | 1007.4 |
| 20260506200504 | 59 | 201 | 1.0 | 9.0 | 0.00 | 0.25 | 0.25 | 98 | 1007.1 |
| 20260506200005 | 59 | 193 | 1.0 | 6.0 | 0.00 | 0.25 | 0.25 | 98 | 1007.0 |
| 20260506195504 | 59 | 189 | 1.0 | 6.0 | 0.00 | 0.25 | 0.25 | 98 | 1007.0 |
| 20260506195004 | 59 | 194 | 1.0 | 4.0 | 0.00 | 0.25 | 0.25 | 98 | 1007.1 |
| 20260506194504 | 59 | 210 | 1.0 | 6.0 | 0.00 | 0.25 | 0.25 | 98 | 1007.2 |
| 20260506194004 | 59 | 211 | 1.0 | 6.0 | 0.00 | 0.25 | 0.25 | 98 | 1007.1 |
| 20260506193504 | 59 | 211 | 1.0 | 4.0 | 0.00 | 0.25 | 0.25 | 98 | 1007.2 |
| 20260506193004 | 59 | 211 | 1.0 | 4.0 | 0.00 | 0.25 | 0.25 | 98 | 1007.3 |
| 20260506192504 | 59 | 216 | 1.0 | 4.0 | 0.00 | 0.25 | 0.25 | 98 | 1007.3 |
| 20260506192004 | 59 | 215 | 1.0 | 4.0 | 0.00 | 0.25 | 0.25 | 98 | 1007.3 |
| 20260506191504 | 59 | 215 | 1.0 | 4.0 | 0.00 | 0.25 | 0.25 | 98 | 1007.4 |
| 20260506191004 | 59 | 213 | 1.0 | 6.0 | 0.00 | 0.25 | 0.25 | 98 | 1007.4 |
| 20260506190504 | 59 | 209 | 3.0 | 6.0 | 0.00 | 0.25 | 0.25 | 98 | 1007.1 |
| 20260506190025 | 59 | 202 | 3.0 | 6.0 | 0.00 | 0.25 | 0.25 | 98 | 1007.2 |
| 20260506185504 | 59 | 199 | 1.0 | 6.0 | 0.00 | 0.25 | 0.25 | 98 | 1007.3 |
| 20260506185004 | 59 | 200 | 1.0 | 6.0 | 0.00 | 0.25 | 0.25 | 98 | 1007.4 |
| 20260506184525 | 59 | 191 | 1.0 | 4.0 | 0.00 | 0.25 | 0.25 | 98 | 1007.4 |
| 20260506184005 | 59 | 183 | 1.0 | 4.0 | 0.00 | 0.25 | 0.25 | 98 | 1007.4 |
| 20260506183504 | 59 | 192 | 1.0 | 4.0 | 0.00 | 0.25 | 0.25 | 98 | 1007.4 |
| 20260506183005 | 59 | 211 | 1.0 | 4.0 | 0.00 | 0.25 | 0.25 | 98 | 1007.5 |
| 20260506182504 | 59 | 210 | 1.0 | 4.0 | 0.00 | 0.25 | 0.25 | 98 | 1007.6 |
| 20260506182004 | 59 | 209 | 1.0 | 4.0 | 0.00 | 0.25 | 0.25 | 98 | 1007.5 |
| 20260506181504 | 59 | 218 | 1.0 | 4.0 | 0.00 | 0.25 | 0.25 | 98 | 1007.6 |
| 20260506181025 | 59 | 218 | 1.0 | 4.0 | 0.01 | 0.25 | 0.25 | 98 | 1007.6 |
| 20260506180504 | 59 | 198 | 1.0 | 7.0 | 0.01 | 0.25 | 0.25 | 98 | 1007.6 |
| 20260506180005 | 59 | 196 | 1.0 | 7.0 | 0.01 | 0.25 | 0.25 | 98 | 1007.5 |
| 20260506175504 | 59 | 186 | 3.0 | 9.0 | 0.02 | 0.25 | 0.25 | 98 | 1007.6 |
| 20260506175004 | 59 | 179 | 3.0 | 9.0 | 0.02 | 0.25 | 0.25 | 98 | 1007.6 |
| 20260506174504 | 59 | 181 | 3.0 | 7.0 | 0.02 | 0.25 | 0.25 | 98 | 1007.5 |
| 20260506174004 | 59 | 178 | 3.0 | 7.0 | 0.02 | 0.25 | 0.25 | 97 | 1007.5 |
| 20260506173504 | 59 | 174 | 4.0 | 10.0 | 0.03 | 0.25 | 0.25 | 98 | 1007.5 |
| 20260506173004 | 59 | 179 | 4.0 | 10.0 | 0.03 | 0.25 | 0.25 | 98 | 1007.4 |
| 20260506172504 | 59 | 178 | 4.0 | 10.0 | 0.03 | 0.25 | 0.25 | 98 | 1007.4 |
| 20260506172004 | 59 | 170 | 4.0 | 10.0 | 0.03 | 0.25 | 0.25 | 98 | 1007.4 |
| 20260506171504 | 59 | 169 | 4.0 | 10.0 | 0.03 | 0.25 | 0.25 | 98 | 1007.4 |
| 20260506171004 | 59 | 173 | 3.0 | 9.0 | 0.02 | 0.24 | 0.24 | 98 | 1007.6 |
| 20260506170504 | 59 | 194 | 3.0 | 6.0 | 0.02 | 0.24 | 0.24 | 98 | 1007.7 |
| 20260506170004 | 58 | 207 | 1.0 | 6.0 | 0.03 | 0.24 | 0.24 | 98 | 1007.7 |
| 20260506165504 | 58 | 208 | 1.0 | 4.0 | 0.02 | 0.23 | 0.23 | 98 | 1007.9 |
| 20260506165005 | 58 | 207 | 1.0 | 4.0 | 0.02 | 0.23 | 0.23 | 98 | 1007.8 |
| 20260506164504 | 58 | 194 | 1.0 | 4.0 | 0.02 | 0.23 | 0.23 | 97 | 1007.7 |
| 20260506164004 | 58 | 201 | 1.0 | 4.0 | 0.03 | 0.23 | 0.23 | 97 | 1007.7 |
| 20260506163504 | 58 | 210 | 1.0 | 4.0 | 0.02 | 0.22 | 0.22 | 97 | 1007.8 |
| 20260506163004 | 58 | 210 | 1.0 | 4.0 | 0.03 | 0.22 | 0.22 | 97 | 1007.8 |
| 20260506162504 | 58 | 198 | 1.0 | 4.0 | 0.03 | 0.22 | 0.22 | 97 | 1007.8 |
| 20260506162004 | 58 | 185 | 1.0 | 4.0 | 0.04 | 0.22 | 0.22 | 97 | 1007.8 |
| 20260506161525 | 58 | 193 | 1.0 | 4.0 | 0.05 | 0.22 | 0.22 | 97 | 1007.8 |
| 20260506161004 | 58 | 184 | 1.0 | 7.0 | 0.05 | 0.22 | 0.22 | 97 | 1007.8 |
| 20260506160504 | 58 | 171 | 3.0 | 7.0 | 0.06 | 0.22 | 0.22 | 97 | 1007.9 |
| 20260506160025 | 58 | 170 | 3.0 | 7.0 | 0.05 | 0.21 | 0.21 | 97 | 1007.8 |
| 20260506155504 | 58 | 177 | 3.0 | 13.0 | 0.05 | 0.21 | 0.21 | 97 | 1007.8 |
| 20260506155004 | 58 | 175 | 3.0 | 13.0 | 0.05 | 0.21 | 0.21 | 97 | 1007.9 |
| 20260506154504 | 58 | 173 | 3.0 | 10.0 | 0.06 | 0.21 | 0.21 | 97 | 1007.9 |
| 20260506154004 | 58 | 177 | 4.0 | 13.0 | 0.05 | 0.20 | 0.20 | 97 | 1007.9 |
| 20260506153504 | 58 | 184 | 3.0 | 13.0 | 0.05 | 0.20 | 0.20 | 97 | 1008.1 |
| 20260506153004 | 58 | 187 | 3.0 | 9.0 | 0.05 | 0.19 | 0.19 | 97 | 1008.2 |
| 20260506152504 | 58 | 179 | 3.0 | 7.0 | 0.05 | 0.19 | 0.19 | 97 | 1008.2 |
| 20260506152004 | 58 | 176 | 3.0 | 7.0 | 0.04 | 0.18 | 0.18 | 97 | 1008.2 |
| 20260506151525 | 58 | 177 | 3.0 | 6.0 | 0.03 | 0.17 | 0.17 | 97 | 1008.1 |
| 20260506151025 | 58 | 173 | 3.0 | 9.0 | 0.04 | 0.17 | 0.17 | 97 | 1008.1 |
| 20260506150504 | 58 | 186 | 3.0 | 12.0 | 0.03 | 0.16 | 0.16 | 97 | 1007.9 |
| 20260506150004 | 58 | 195 | 4.0 | 13.0 | 0.04 | 0.16 | 0.16 | 96 | 1007.9 |
| 20260506145504 | 58 | 179 | 4.0 | 13.0 | 0.05 | 0.16 | 0.16 | 96 | 1008.1 |
| 20260506145004 | 58 | 170 | 4.0 | 12.0 | 0.05 | 0.16 | 0.16 | 96 | 1007.9 |
| 20260506144525 | 58 | 169 | 3.0 | 13.0 | 0.05 | 0.15 | 0.15 | 96 | 1008.0 |
| 20260506144004 | 58 | 165 | 4.0 | 13.0 | 0.06 | 0.15 | 0.15 | 96 | 1007.7 |
| 20260506143525 | 58 | 166 | 3.0 | 9.0 | 0.07 | 0.15 | 0.15 | 96 | 1007.9 |
| 20260506143004 | 58 | 171 | 1.0 | 6.0 | 0.07 | 0.14 | 0.14 | 96 | 1008.0 |
| 20260506142525 | 58 | 167 | 3.0 | 7.0 | 0.07 | 0.14 | 0.14 | 96 | 1008.2 |
| 20260506142004 | 58 | 166 | 3.0 | 12.0 | 0.08 | 0.14 | 0.14 | 96 | 1008.0 |
| 20260506141504 | 58 | 167 | 3.0 | 12.0 | 0.09 | 0.14 | 0.14 | 96 | 1007.9 |
| 20260506141004 | 58 | 166 | 3.0 | 9.0 | 0.09 | 0.13 | 0.13 | 96 | 1007.9 |
| 20260506140525 | 58 | 166 | 3.0 | 10.0 | 0.09 | 0.13 | 0.13 | 96 | 1008.0 |
| 20260506140004 | 57 | 165 | 3.0 | 10.0 | 0.09 | 0.12 | 0.12 | 96 | 1008.1 |
| 20260506135504 | 57 | 167 | 3.0 | 10.0 | 0.09 | 0.11 | 0.11 | 96 | 1008.2 |
| 20260506135004 | 57 | 171 | 3.0 | 13.0 | 0.10 | 0.11 | 0.11 | 96 | 1008.3 |
| 20260506134504 | 57 | 167 | 3.0 | 13.0 | 0.10 | 0.10 | 0.10 | 95 | 1008.3 |
| 20260506134004 | 57 | 163 | 1.0 | 10.0 | 0.09 | 0.09 | 0.09 | 95 | 1008.4 |
| 20260506133504 | 57 | 164 | 0.0 | 7.0 | 0.08 | 0.08 | 0.08 | 95 | 1008.5 |
| 20260506133004 | 57 | 168 | 1.0 | 4.0 | 0.07 | 0.07 | 0.07 | 94 | 1008.6 |
| 20260506132525 | 56 | 171 | 1.0 | 4.0 | 0.07 | 0.07 | 0.07 | 93 | 1008.7 |
| 20260506132004 | 56 | 175 | 0.0 | 1.0 | 0.06 | 0.06 | 0.06 | 93 | 1008.6 |
| 20260506131504 | 56 | 175 | 0.0 | 3.0 | 0.05 | 0.05 | 0.05 | 92 | 1008.7 |
| 20260506131004 | 57 | 175 | 0.0 | 3.0 | 0.04 | 0.04 | 0.04 | 91 | 1008.8 |
| 20260506130525 | 57 | 0 | 0.0 | 0.0 | 0.04 | 0.04 | 0.04 | 90 | 1009.0 |
| 20260506130005 | 57 | 175 | 0.0 | 3.0 | 0.03 | 0.03 | 0.03 | 90 | 1009.0 |
| 20260506125504 | 58 | 175 | 1.0 | 3.0 | 0.02 | 0.02 | 0.02 | 88 | 1009.0 |
| 20260506125025 | 58 | 177 | 1.0 | 4.0 | 0.01 | 0.01 | 0.01 | 87 | 1008.9 |
| 20260506124504 | 59 | 184 | 1.0 | 4.0 | 0.00 | 0.00 | 0.00 | 85 | 1008.8 |
| 20260506124004 | 59 | 184 | 1.0 | 4.0 | 0.00 | 0.00 | 0.00 | 82 | 1008.7 |
| 20260506123504 | 60 | 163 | 0.0 | 1.0 | 0.00 | 0.00 | 0.00 | 81 | 1008.4 |
| 20260506123004 | 60 | 163 | 0.0 | 1.0 | 0.00 | 0.00 | 0.00 | 82 | 1008.3 |
| 20260506122504 | 60 | 163 | 0.0 | 1.0 | 0.00 | 0.00 | 0.00 | 79 | 1008.2 |
| 20260506122024 | 60 | 163 | 0.0 | 3.0 | 0.00 | 0.00 | 0.00 | 75 | 1008.1 |
| 20260506121504 | 60 | 163 | 0.0 | 3.0 | 0.00 | 0.00 | 0.00 | 76 | 1008.1 |
| 20260506121004 | 61 | 0 | 0.0 | 0.0 | 0.00 | 0.00 | 0.00 | 75 | 1008.2 |
| 20260506120525 | 61 | 0 | 0.0 | 0.0 | 0.00 | 0.00 | 0.00 | 75 | 1008.4 |
| 20260506120004 | 61 | 0 | 0.0 | 0.0 | 0.00 | 0.00 | 0.00 | 72 | 1008.5 |
| 20260506115525 | 61 | 0 | 0.0 | 0.0 | 0.00 | 0.00 | 0.00 | 71 | 1008.4 |
| 20260506115004 | 61 | 0 | 0.0 | 0.0 | 0.00 | 0.00 | 0.00 | 70 | 1008.5 |
| 20260506114504 | 61 | 0 | 0.0 | 0.0 | 0.00 | 0.00 | 0.00 | 71 | 1008.4 |
| 20260506114004 | 61 | 0 | 0.0 | 0.0 | 0.00 | 0.00 | 0.00 | 70 | 1008.3 |
| 20260506113525 | 61 | 0 | 0.0 | 0.0 | 0.00 | 0.00 | 0.00 | 71 | 1008.4 |
| 20260506113004 | 61 | 0 | 0.0 | 0.0 | 0.00 | 0.00 | 0.00 | 71 | 1008.4 |
| 20260506112503 | 61 | 0 | 0.0 | 0.0 | 0.00 | 0.00 | 0.00 | 70 | 1008.3 |
| 20260506112004 | 61 | 0 | 0.0 | 0.0 | 0.00 | 0.00 | 0.00 | 70 | 1008.3 |
| 20260506111503 | 61 | 0 | 0.0 | 0.0 | 0.00 | 0.00 | 0.00 | 70 | 1008.3 |
| 20260506111004 | 61 | 0 | 0.0 | 0.0 | 0.00 | 0.00 | 0.00 | 69 | 1008.2 |
| 20260506110503 | 62 | 0 | 0.0 | 0.0 | 0.00 | 0.00 | 0.00 | 70 | 1008.3 |
| 20260506110025 | 62 | 0 | 0.0 | 0.0 | 0.00 | 0.00 | 0.00 | 69 | 1008.3 |
| 20260506105503 | 62 | 0 | 0.0 | 0.0 | 0.00 | 0.00 | 0.00 | 66 | 1008.4 |
| 20260506105004 | 62 | 0 | 0.0 | 0.0 | 0.00 | 0.00 | 0.00 | 66 | 1008.3 |
| 20260506104504 | 61 | 0 | 0.0 | 0.0 | 0.00 | 0.00 | 0.00 | 66 | 1008.2 |
| 20260506104024 | 61 | 0 | 0.0 | 0.0 | 0.00 | 0.00 | 0.00 | 67 | 1008.1 |
| 20260506103503 | 61 | 0 | 0.0 | 0.0 | 0.00 | 0.00 | 0.00 | 66 | 1008.1 |
| 20260506103003 | 61 | 0 | 0.0 | 0.0 | 0.00 | 0.00 | 0.00 | 68 | 1007.7 |
| 20260506102504 | 61 | 0 | 0.0 | 0.0 | 0.00 | 0.00 | 0.00 | 67 | 1007.9 |
| 20260506102004 | 61 | 0 | 0.0 | 0.0 | 0.00 | 0.00 | 0.00 | 67 | 1007.8 |
| 20260506101504 | 62 | 165 | 0.0 | 1.0 | 0.00 | 0.00 | 0.00 | 66 | 1007.9 |
| 20260506101004 | 62 | 165 | 0.0 | 1.0 | 0.00 | 0.00 | 0.00 | 66 | 1007.9 |
| 20260506100504 | 62 | 0 | 0.0 | 0.0 | 0.00 | 0.00 | 0.00 | 66 | 1007.8 |
| 20260506100004 | 62 | 0 | 0.0 | 0.0 | 0.00 | 0.00 | 0.00 | 66 | 1007.7 |
| 20260506095503 | 62 | 0 | 0.0 | 0.0 | 0.00 | 0.00 | 0.00 | 64 | 1007.8 |
| 20260506095024 | 62 | 0 | 0.0 | 0.0 | 0.00 | 0.00 | 0.00 | 63 | 1007.9 |
| 20260506094503 | 62 | 0 | 0.0 | 0.0 | 0.00 | 0.00 | 0.00 | 64 | 1008.0 |
| 20260506094003 | 62 | 0 | 0.0 | 0.0 | 0.00 | 0.00 | 0.00 | 64 | 1008.0 |
| 20260506093503 | 62 | 165 | 0.0 | 1.0 | 0.00 | 0.00 | 0.00 | 63 | 1007.9 |
| 20260506093004 | 62 | 165 | 0.0 | 1.0 | 0.00 | 0.00 | 0.00 | 64 | 1007.9 |
| 20260506092503 | 62 | 165 | 0.0 | 1.0 | 0.00 | 0.00 | 0.00 | 65 | 1007.8 |
| 20260506092003 | 62 | 0 | 0.0 | 0.0 | 0.00 | 0.00 | 0.00 | 64 | 1007.9 |
| 20260506091525 | 62 | 0 | 0.0 | 0.0 | 0.00 | 0.00 | 0.00 | 63 | 1007.9 |
| 20260506091003 | 62 | 165 | 0.0 | 1.0 | 0.00 | 0.00 | 0.00 | 64 | 1007.9 |
| 20260506090503 | 62 | 165 | 0.0 | 1.0 | 0.00 | 0.00 | 0.00 | 65 | 1007.9 |
| 20260506090004 | 62 | 166 | 0.0 | 3.0 | 0.00 | 0.00 | 0.00 | 64 | 1008.0 |
| 20260506085503 | 62 | 168 | 0.0 | 3.0 | 0.00 | 0.00 | 0.00 | 63 | 1008.1 |
| 20260506085003 | 62 | 169 | 0.0 | 3.0 | 0.00 | 0.00 | 0.00 | 65 | 1008.1 |
| 20260506084503 | 62 | 169 | 0.0 | 3.0 | 0.00 | 0.00 | 0.00 | 63 | 1008.3 |
| 20260506084003 | 62 | 169 | 1.0 | 3.0 | 0.00 | 0.00 | 0.00 | 66 | 1008.1 |
| 20260506083503 | 62 | 169 | 0.0 | 3.0 | 0.00 | 0.00 | 0.00 | 65 | 1008.2 |
| 20260506083004 | 62 | 169 | 0.0 | 1.0 | 0.00 | 0.00 | 0.00 | 62 | 1008.5 |
| 20260506082503 | 62 | 169 | 0.0 | 1.0 | 0.00 | 0.00 | 0.00 | 62 | 1008.3 |
| 20260506082024 | 62 | 169 | 0.0 | 1.0 | 0.00 | 0.00 | 0.00 | 62 | 1008.3 |
| 20260506081503 | 62 | 169 | 1.0 | 3.0 | 0.00 | 0.00 | 0.00 | 62 | 1008.2 |
| 20260506081003 | 62 | 169 | 1.0 | 3.0 | 0.00 | 0.00 | 0.00 | 62 | 1008.1 |
| 20260506080525 | 62 | 169 | 0.0 | 3.0 | 0.00 | 0.00 | 0.00 | 61 | 1008.1 |
| 20260506073503 | 62 | 0 | 0.0 | 0.0 | 0.00 | 0.00 | 0.00 | 64 | 1008.0 |
| 20260506073003 | 62 | 169 | 0.0 | 1.0 | 0.00 | 0.00 | 0.00 | 63 | 1008.1 |
| 20260506072524 | 62 | 169 | 0.0 | 1.0 | 0.00 | 0.00 | 0.00 | 62 | 1008.1 |
| 20260506072003 | 62 | 169 | 0.0 | 1.0 | 0.00 | 0.00 | 0.00 | 63 | 1008.3 |
| 20260506071503 | 62 | 169 | 0.0 | 3.0 | 0.00 | 0.00 | 0.00 | 63 | 1008.3 |
| 20260506071024 | 62 | 169 | 0.0 | 3.0 | 0.00 | 0.00 | 0.00 | 64 | 1008.4 |
| 20260506070504 | 62 | 169 | 0.0 | 3.0 | 0.00 | 0.00 | 0.00 | 63 | 1008.5 |
| 20260506062503 | 61 | 0 | 0.0 | 0.0 | 0.00 | 0.00 | 0.00 | 66 | 1008.7 |
| 20260506062003 | 61 | 0 | 0.0 | 0.0 | 0.00 | 0.00 | 0.00 | 66 | 1008.7 |
| 20260506061524 | 60 | 0 | 0.0 | 0.0 | 0.00 | 0.00 | 0.00 | 66 | 1008.7 |
| 20260506061024 | 61 | 0 | 0.0 | 0.0 | 0.00 | 0.00 | 0.00 | 67 | 1008.8 |
| 20260506060503 | 61 | 0 | 0.0 | 0.0 | 0.00 | 0.00 | 0.00 | 69 | 1008.7 |
| 20260506051026 | 62 | 0 | 0.0 | 0.0 | 0.00 | 0.00 | 0.00 | 68 | 1009.4 |
| 20260506050505 | 62 | 0 | 0.0 | 0.0 | 0.00 | 0.00 | 0.00 | 68 | 1009.4 |
| 20260506045005 | 62 | 0 | 0.0 | 0.0 | 0.00 | 0.00 | 0.00 | 68 | 1009.3 |
| 20260506044505 | 62 | 0 | 0.0 | 0.0 | 0.00 | 0.00 | 0.00 | 69 | 1009.2 |
| 20260506044005 | 62 | 0 | 0.0 | 0.0 | 0.00 | 0.00 | 0.00 | 69 | 1009.2 |
| 20260506043505 | 62 | 0 | 0.0 | 0.0 | 0.00 | 0.00 | 0.00 | 70 | 1009.2 |
| 20260506043005 | 62 | 0 | 0.0 | 0.0 | 0.00 | 0.00 | 0.00 | 70 | 1009.3 |
| 20260506042505 | 62 | 0 | 0.0 | 0.0 | 0.00 | 0.00 | 0.00 | 70 | 1009.3 |
| 20260506042026 | 62 | 0 | 0.0 | 0.0 | 0.00 | 0.00 | 0.00 | 70 | 1009.5 |
| 20260506041505 | 62 | 0 | 0.0 | 0.0 | 0.00 | 0.00 | 0.00 | 69 | 1009.5 |
| 20260506041005 | 62 | 0 | 0.0 | 0.0 | 0.00 | 0.00 | 0.00 | 69 | 1009.5 |
| 20260506040505 | 62 | 0 | 0.0 | 0.0 | 0.00 | 0.00 | 0.00 | 69 | 1009.5 |
| 20260506040005 | 62 | 0 | 0.0 | 0.0 | 0.00 | 0.00 | 0.00 | 69 | 1009.6 |
| 20260506035505 | 63 | 0 | 0.0 | 0.0 | 0.00 | 0.00 | 0.00 | 68 | 1009.6 |
| 20260506035026 | 63 | 0 | 0.0 | 0.0 | 0.00 | 0.00 | 0.00 | 68 | 1009.7 |
| 20260506034505 | 63 | 0 | 0.0 | 0.0 | 0.00 | 0.00 | 0.00 | 68 | 1009.5 |
| 20260506034005 | 63 | 0 | 0.0 | 0.0 | 0.00 | 0.00 | 0.00 | 67 | 1009.7 |
| 20260506033505 | 63 | 173 | 0.0 | 3.0 | 0.00 | 0.00 | 0.00 | 68 | 1009.6 |
| 20260506033005 | 63 | 175 | 0.0 | 3.0 | 0.00 | 0.00 | 0.00 | 67 | 1009.7 |
| 20260506032505 | 63 | 179 | 0.0 | 3.0 | 0.00 | 0.00 | 0.00 | 67 | 1009.6 |
| 20260506032005 | 63 | 0 | 0.0 | 0.0 | 0.00 | 0.00 | 0.00 | 67 | 1009.6 |
| 20260506031505 | 63 | 0 | 0.0 | 0.0 | 0.00 | 0.00 | 0.00 | 67 | 1009.7 |
| 20260506031005 | 63 | 0 | 0.0 | 0.0 | 0.00 | 0.00 | 0.00 | 67 | 1009.7 |
| 20260506030505 | 63 | 0 | 0.0 | 0.0 | 0.00 | 0.00 | 0.00 | 66 | 1009.5 |
| 20260506030005 | 63 | 0 | 0.0 | 0.0 | 0.00 | 0.00 | 0.00 | 66 | 1009.5 |
| 20260506025505 | 64 | 0 | 0.0 | 0.0 | 0.00 | 0.00 | 0.00 | 66 | 1009.5 |
| 20260506025005 | 64 | 0 | 0.0 | 0.0 | 0.00 | 0.00 | 0.00 | 66 | 1009.5 |
| 20260506024505 | 64 | 0 | 0.0 | 0.0 | 0.00 | 0.00 | 0.00 | 65 | 1009.5 |
| 20260506024005 | 64 | 0 | 0.0 | 0.0 | 0.00 | 0.00 | 0.00 | 65 | 1009.5 |
| 20260506023505 | 64 | 0 | 0.0 | 0.0 | 0.00 | 0.00 | 0.00 | 66 | 1009.4 |
| 20260506023026 | 64 | 0 | 0.0 | 0.0 | 0.00 | 0.00 | 0.00 | 65 | 1009.4 |
| 20260506022505 | 65 | 0 | 0.0 | 0.0 | 0.00 | 0.00 | 0.00 | 65 | 1009.3 |
| 20260506022005 | 65 | 0 | 0.0 | 0.0 | 0.00 | 0.00 | 0.00 | 65 | 1009.4 |
| 20260506021526 | 65 | 0 | 0.0 | 0.0 | 0.00 | 0.00 | 0.00 | 64 | 1009.3 |
| 20260506021005 | 65 | 0 | 0.0 | 0.0 | 0.00 | 0.00 | 0.00 | 65 | 1009.4 |
| 20260506020505 | 66 | 0 | 0.0 | 0.0 | 0.00 | 0.00 | 0.00 | 64 | 1009.4 |
| 20260506020005 | 66 | 0 | 0.0 | 0.0 | 0.00 | 0.00 | 0.00 | 63 | 1009.4 |
| 20260506015505 | 66 | 0 | 0.0 | 0.0 | 0.00 | 0.00 | 0.00 | 63 | 1009.4 |
| 20260506015005 | 66 | 0 | 0.0 | 0.0 | 0.00 | 0.00 | 0.00 | 62 | 1009.4 |
| 20260506014505 | 66 | 0 | 0.0 | 0.0 | 0.00 | 0.00 | 0.00 | 62 | 1009.4 |
| 20260506014026 | 67 | 0 | 0.0 | 0.0 | 0.00 | 0.00 | 0.00 | 61 | 1009.4 |
| 20260506013504 | 67 | 0 | 0.0 | 0.0 | 0.00 | 0.00 | 0.00 | 61 | 1009.3 |
| 20260506013027 | 67 | 0 | 0.0 | 0.0 | 0.00 | 0.00 | 0.00 | 60 | 1009.3 |
| 20260506012505 | 67 | 0 | 0.0 | 0.0 | 0.00 | 0.00 | 0.00 | 59 | 1009.2 |
| 20260506012004 | 67 | 0 | 0.0 | 0.0 | 0.00 | 0.00 | 0.00 | 58 | 1009.1 |
| 20260506011505 | 68 | 0 | 0.0 | 0.0 | 0.00 | 0.00 | 0.00 | 58 | 1009.0 |
| 20260506011005 | 68 | 0 | 0.0 | 0.0 | 0.00 | 0.00 | 0.00 | 58 | 1008.9 |
| 20260506010505 | 68 | 0 | 0.0 | 0.0 | 0.00 | 0.00 | 0.00 | 57 | 1008.8 |
| 20260506010004 | 68 | 0 | 0.0 | 0.0 | 0.00 | 0.00 | 0.00 | 57 | 1008.8 |
| 20260506005504 | 68 | 0 | 0.0 | 0.0 | 0.00 | 0.00 | 0.00 | 56 | 1008.7 |
| 20260506005005 | 69 | 0 | 0.0 | 0.0 | 0.00 | 0.00 | 0.00 | 56 | 1008.7 |
| 20260506004505 | 69 | 0 | 0.0 | 0.0 | 0.00 | 0.00 | 0.00 | 55 | 1008.6 |
| 20260506004005 | 69 | 0 | 0.0 | 0.0 | 0.00 | 0.00 | 0.00 | 56 | 1008.6 |
| 20260506003505 | 70 | 0 | 0.0 | 0.0 | 0.00 | 0.00 | 0.00 | 55 | 1008.5 |
| 20260506003005 | 70 | 0 | 0.0 | 0.0 | 0.00 | 0.00 | 0.00 | 54 | 1008.5 |
| 20260506002504 | 70 | 0 | 0.0 | 0.0 | 0.00 | 0.00 | 0.00 | 53 | 1008.6 |
| 20260506002005 | 70 | 0 | 0.0 | 0.0 | 0.00 | 0.00 | 0.00 | 53 | 1008.6 |
| 20260506001504 | 70 | 0 | 0.0 | 0.0 | 0.00 | 0.00 | 0.00 | 54 | 1008.6 |
| 20260506001005 | 70 | 0 | 0.0 | 0.0 | 0.00 | 0.00 | 0.00 | 54 | 1008.5 |
| 20260506000505 | 70 | 0 | 0.0 | 0.0 | 0.00 | 0.00 | 0.00 | 53 | 1008.5 |
| 20260506000005 | 71 | 0 | 0.0 | 0.0 | 0.00 | 0.00 | 0.00 | 52 | 1008.4 |
| 20260505235505 | 71 | 0 | 0.0 | 0.0 | 0.00 | 0.00 | 0.00 | 53 | 1008.4 |
| 20260505235005 | 71 | 0 | 0.0 | 0.0 | 0.00 | 0.00 | 0.00 | 54 | 1008.4 |
| 20260505234504 | 71 | 0 | 0.0 | 0.0 | 0.00 | 0.00 | 0.00 | 52 | 1008.3 |
| 20260505234005 | 71 | 0 | 0.0 | 0.0 | 0.00 | 0.00 | 0.00 | 50 | 1008.2 |
| 20260505233504 | 71 | 0 | 0.0 | 0.0 | 0.00 | 0.00 | 0.00 | 50 | 1008.2 |
| 20260505233004 | 72 | 0 | 0.0 | 0.0 | 0.00 | 0.00 | 0.00 | 53 | 1008.3 |
| 20260505232504 | 72 | 0 | 0.0 | 0.0 | 0.00 | 0.00 | 0.00 | 51 | 1008.2 |
| 20260505232004 | 72 | 214 | 0.0 | 1.0 | 0.00 | 0.00 | 0.00 | 53 | 1008.1 |
| 20260505231504 | 72 | 214 | 0.0 | 3.0 | 0.00 | 0.00 | 0.00 | 52 | 1008.2 |
| 20260505231004 | 72 | 214 | 0.0 | 3.0 | 0.00 | 0.00 | 0.00 | 51 | 1008.1 |
| 20260505230504 | 72 | 214 | 0.0 | 1.0 | 0.00 | 0.00 | 0.00 | 53 | 1008.1 |
| 20260505230005 | 72 | 214 | 0.0 | 3.0 | 0.00 | 0.00 | 0.00 | 52 | 1008.1 |
| 20260505225504 | 72 | 214 | 0.0 | 3.0 | 0.00 | 0.00 | 0.00 | 51 | 1008.1 |
| 20260505225026 | 72 | 216 | 0.0 | 3.0 | 0.00 | 0.00 | 0.00 | 50 | 1008.1 |
| 20260505224505 | 73 | 216 | 0.0 | 3.0 | 0.00 | 0.00 | 0.00 | 50 | 1008.0 |
| 20260505224005 | 73 | 212 | 0.0 | 3.0 | 0.00 | 0.00 | 0.00 | 51 | 1008.1 |
| 20260505223505 | 73 | 209 | 0.0 | 3.0 | 0.00 | 0.00 | 0.00 | 50 | 1007.9 |
| 20260505223005 | 73 | 205 | 0.0 | 3.0 | 0.00 | 0.00 | 0.00 | 51 | 1007.9 |
| 20260505222526 | 73 | 201 | 0.0 | 1.0 | 0.00 | 0.00 | 0.00 | 51 | 1007.8 |
| 20260505222004 | 73 | 199 | 0.0 | 1.0 | 0.00 | 0.00 | 0.00 | 50 | 1007.6 |
| 20260505221504 | 74 | 194 | 1.0 | 4.0 | 0.00 | 0.00 | 0.00 | 50 | 1007.7 |
| 20260505221025 | 74 | 196 | 1.0 | 4.0 | 0.00 | 0.00 | 0.00 | 49 | 1007.7 |
| 20260505220504 | 74 | 203 | 1.0 | 9.0 | 0.00 | 0.00 | 0.00 | 50 | 1007.7 |
| 20260505220004 | 74 | 202 | 3.0 | 9.0 | 0.00 | 0.00 | 0.00 | 51 | 1007.8 |
| 20260505215505 | 74 | 210 | 3.0 | 13.0 | 0.00 | 0.00 | 0.00 | 48 | 1007.7 |
| 20260505215004 | 74 | 207 | 4.0 | 16.0 | 0.00 | 0.00 | 0.00 | 49 | 1007.6 |
| 20260505214504 | 74 | 199 | 4.0 | 16.0 | 0.00 | 0.00 | 0.00 | 49 | 1007.5 |
| 20260505214026 | 74 | 199 | 3.0 | 9.0 | 0.00 | 0.00 | 0.00 | 51 | 1007.6 |
| 20260505213504 | 74 | 209 | 3.0 | 7.0 | 0.00 | 0.00 | 0.00 | 50 | 1007.7 |
| 20260505213004 | 74 | 215 | 3.0 | 7.0 | 0.00 | 0.00 | 0.00 | 49 | 1007.6 |
| 20260505212504 | 75 | 219 | 3.0 | 9.0 | 0.00 | 0.00 | 0.00 | 49 | 1007.6 |
| 20260505212004 | 76 | 232 | 3.0 | 10.0 | 0.00 | 0.00 | 0.00 | 46 | 1007.6 |